Mount Shasta, CA

1:58 PM PDT on August 22, 2017 (GMT -0700)
Mount Shasta

Weather History for KMHS - November, 2013

Change the Weather History Date:

Monday, November 25, 2013

  Actual Average Record
Temperature  
Mean Temperature 41 °F 38 °F  
Max Temperature 59 °F 48 °F 68 °F (1950)
Min Temperature 23 °F 28 °F 6 °F (1993)
Degree Days  
Heating Degree Days 24 27  
Month to date heating degree days 500 594  
Since 1 July heating degree days 1139 1258  
Cooling Degree Days 0 0  
Month to date cooling degree days 0 0  
Year to date cooling degree days 474 288  
Moisture  
Dew Point 18 °F    
Average Humidity 50    
Maximum Humidity 63    
Minimum Humidity 21    
Precipitation  
Precipitation 0.00 in 0.19 in 2.00 in (1926)
Month to date precipitation 0.22 4.06  
Year to date precipitation 9.76 34.34  
Sea Level Pressure  
Sea Level Pressure 30.39 in    
Wind  
Wind Speed 2 mph (NNE)    
Max Wind Speed 8 mph    
Max Gust Speed 12 mph    
Visibility 8 miles    
Events      
T = Trace of Precipitation, MM = Missing Value Source: NWS Daily Summary

Daily Weather History Graph

Daily Weather History Graph

Search for Another Location

Airport or City:

Trip Planner

Search our weather history database for the weather conditions in past years. The results will help you decide how hot, cold, wet, or windy it might be!

Date:

Astronomy

Nov. 25, 2013 Rise Set
Actual Time 7:09 AM PST 4:42 PM PST
Civil Twilight 6:39 AM PST 5:13 PM PST
Nautical Twilight 6:05 AM PST 5:47 PM PST
Astronomical Twilight 5:32 AM PST 6:20 PM PST
Moon No Moon Rise 12:26 PM PST (11/25)
Length of Visible Light 10h 34m
Length of Day
9h 33m
Waning Gibbous, 50% of the Moon is Illuminated
Nov 25
Waning Gibbous
Dec 2
New
Dec 9
First Quarter
Dec 17
Full
Dec 25
Last Quarter

Hourly Weather History & Observations

Time (PST) Temp. Windchill Dew Point Humidity Pressure Visibility Wind Dir Wind Speed Gust Speed Precip Events Conditions
12:56 AM 27.0 °F - 16.0 °F 63% 30.35 in 6.0 mi Calm Calm - N/A   Haze
1:56 AM 27.0 °F - 15.1 °F 61% 30.35 in 6.0 mi Calm Calm - N/A   Haze
2:56 AM 26.1 °F 21.9 °F 15.1 °F 63% 30.36 in 6.0 mi NE 3.5 mph - N/A   Haze
3:56 AM 26.1 °F - 14.0 °F 60% 30.37 in 10.0 mi Calm Calm - N/A   Clear
4:56 AM 25.0 °F - 14.0 °F 63% 30.39 in 10.0 mi Calm Calm - N/A   Clear
5:56 AM 25.0 °F - 14.0 °F 63% 30.42 in 9.0 mi Calm Calm - N/A   Clear
6:56 AM 24.1 °F - 14.0 °F 65% 30.44 in 8.0 mi Calm Calm - N/A   Clear
7:56 AM 25.0 °F - 14.0 °F 63% 30.45 in 6.0 mi Calm Calm - N/A   Haze
8:56 AM 35.1 °F - 19.0 °F 52% 30.44 in 4.0 mi Calm Calm - N/A   Haze
9:56 AM 46.0 °F 44.8 °F 18.0 °F 33% 30.42 in 10.0 mi Variable 3.5 mph - N/A   Clear
10:56 AM 50.0 °F - 18.0 °F 28% 30.41 in 10.0 mi Variable 5.8 mph - N/A   Clear
11:56 AM 52.0 °F - 18.0 °F 26% 30.38 in 10.0 mi NW 4.6 mph - N/A   Clear
12:56 PM 57.0 °F - 18.0 °F 22% 30.35 in 10.0 mi Variable 4.6 mph - N/A   Clear
1:56 PM 57.9 °F - 19.0 °F 22% 30.33 in 10.0 mi Calm Calm - N/A   Clear
2:56 PM 55.9 °F - 19.9 °F 25% 30.34 in 10.0 mi WNW 4.6 mph - N/A   Clear
3:56 PM 52.0 °F - 19.9 °F 28% 30.36 in 10.0 mi Calm Calm - N/A   Clear
4:56 PM 44.1 °F - 19.9 °F 38% 30.38 in 10.0 mi Calm Calm - N/A   Clear
5:56 PM 37.0 °F - 21.9 °F 54% 30.40 in 5.0 mi Calm Calm - N/A   Haze
6:56 PM 34.0 °F - 21.9 °F 61% 30.41 in 9.0 mi Calm Calm - N/A   Clear
7:56 PM 33.1 °F 30.0 °F 21.0 °F 61% 30.41 in 10.0 mi NE 3.5 mph - N/A   Clear
8:56 PM 30.9 °F - 19.9 °F 64% 30.40 in 7.0 mi Calm Calm - N/A   Clear
9:56 PM 30.9 °F - 19.9 °F 64% 30.38 in 8.0 mi Calm Calm - N/A   Clear
10:56 PM 30.9 °F 27.5 °F 19.9 °F 64% 30.37 in 6.0 mi ENE 3.5 mph - N/A   Haze
11:56 PM 30.0 °F 26.5 °F 19.9 °F 66% 30.36 in 10.0 mi ENE 3.5 mph - N/A   Clear